Simultaneous Nadir Overpasses (SNOs) Predictions

Prediction of SNOs between METOP-B and TERRA Satellite Orbit:

Table of predicted SNOs for the next 14.0 days since TLE Epoch: 3/30/2014
Index Date (METOP-B) Time (METOP-B) Lat,Lon (METOP-B) SZA (METOP-B ) Date (TERRA) Time (TERRA) Lat,Lon (TERRA) SZA (TERRA ) Distance(km) Time Diff (sec)
1 03/30/2014 18:24:46 81.31, -48.94 80.04 03/30/2014 18:25:33 81.31, -48.84 80.07 1.81 47
2 03/30/2014 19:15:25 -81.32, 118.81 99.93 03/30/2014 19:14:59 -81.31, 118.73 99.96 1.60 26
3 04/02/2014 13:59:06 81.31, 17.63 79.00 04/02/2014 13:59:49 81.31, 17.53 79.00 1.81 43
4 04/02/2014 14:49:46 -81.32,-174.55 100.96 04/02/2014 14:49:15 -81.33,-174.50 100.97 1.14 31
5 04/05/2014 09:33:28 81.31, 83.73 77.92 04/05/2014 09:34:05 81.31, 83.93 77.95 3.34 37
6 04/05/2014 10:24:07 -81.32,-108.01 101.99 04/05/2014 10:23:31 -81.32,-108.08 102.01 1.33 36
7 04/08/2014 05:07:48 81.31, 150.53 76.93 04/08/2014 05:08:20 81.31, 150.36 76.92 2.93 32
8 04/08/2014 05:58:28 -81.32, -41.55 103.02 04/08/2014 05:57:46 -81.33, -41.63 103.04 1.42 42
9 04/11/2014 00:42:08 81.31,-143.14 75.90 04/11/2014 00:42:33 81.31,-143.16 75.91 0.66 25




NCC Satellite Simultaneous Nadir Overpasses (SNOs) Prediction Service
